Overview Statistics Trail Chart Weather Telemetry Raw packets
 

This is the latest recevied weather packets stored in our database for station/object EA5CLU-13. If no packets are shown the sender has not sent any weather packets the latest 10 day(s).

<< 31 32 33 34 35 36 37 >>
Time Temp. Humidity Pressure Rain* Wind** Luminosity Snow
1787829554 28.33° C - 1015.2 hPa 0 mm - - -
1787828654 28.89° C - 1015.1 hPa 0 mm - - -
1787827754 28.89° C - 1015.5 hPa 0 mm - - -
1787827455 29.44° C - 1015.5 hPa 0 mm - - -
1787826856 28.89° C - 1015.7 hPa 0 mm - - -
1787826254 28.33° C - 1015.5 hPa 0 mm - - -
1787825954 28.33° C - 1015.6 hPa 0 mm - - -
1787825654 28.33° C - 1015.7 hPa 0 mm - - -
1787825353 27.78° C - 1015.8 hPa 0 mm - - -
1787825053 27.78° C - 1015.7 hPa 0 mm - - -
1787824753 27.78° C - 1015.8 hPa 0 mm - - -
1787824453 27.22° C - 1015.8 hPa 0 mm - - -
1787824153 27.22° C - 1015.8 hPa 0 mm - - -
1787823854 26.67° C - 1015.8 hPa 0 mm - - -
1787823554 26.67° C - 1015.9 hPa 0 mm - - -
1787823254 26.67° C - 1015.7 hPa 0 mm - - -
1787822954 26.67° C - 1015.9 hPa 0 mm - - -
1787822354 26.11° C - 1015.8 hPa 0 mm - - -
1787822054 20.56° C - 1014.2 hPa 0 mm - - -
1787794638 20.56° C - 1014.3 hPa 0 mm - - -
1787794338 20° C - 1014.3 hPa 0 mm - - -
1787794038 20° C - 1014.3 hPa 0 mm - - -
1787793439 20° C - 1014.2 hPa 0 mm - - -
1787793139 20° C - 1014.4 hPa 0 mm - - -
1787792839 20.56° C - 1014.3 hPa 0 mm - - -

* Rain latest hour (hover to see other rain measurements)
** Current wind speed in m/s (hover to see current wind gust speed)